Date String (YYYY-MM-DD hh:mm:ss) UTC,Instrument flags,Ambient pressure (hPa),Sample flow (lpm),Bypass flow (lpm),Sample temperature (°C),Ambient temperature (°C),ASC tube jacket temperature (°C),LED temperature (°C),Box temperature (°C),Sample RH (%),Span deviation,Mass concentration (μg/m³),Mass concentration (μg/m³),Mass concentration (μg/m³)
DateTimeUTC,F1_M11,P_M11,Q1_M11,Q2_M11,T1_M11,T2_M11,T3_M11,T4_M11,T5_M11,U1_M11,ZSPAN_M11,X2_M11,X0_M11,X1_M11
2022-10-24 09:00:00,,0817.3,5.01,0.00,22.2,20.3,00.0,31.4,23.9,09.4,0000.0,0001.85,0003.99,0001.63
2022-10-24 09:01:00,,0817.3,5.00,0.00,22.2,20.3,00.0,31.4,23.9,09.3,0000.0,0001.82,0002.85,0001.63
2022-10-24 09:02:00,,0817.2,4.99,0.00,22.2,20.2,00.0,31.3,23.8,09.4,0000.0,0001.82,0002.66,0001.63
2022-10-24 09:03:00,,0817.2,4.99,0.00,22.1,20.3,00.0,31.3,23.8,09.5,0000.0,0001.84,0002.69,0001.64
2022-10-24 09:04:00,,0817.2,4.99,0.00,22.1,20.2,00.0,31.3,23.8,09.6,0000.0,0001.86,0002.75,0001.65
2022-10-24 09:05:00,,0817.2,5.00,0.00,22.1,20.2,00.0,31.3,23.8,09.6,0000.0,0001.87,0002.76,0001.66
2022-10-24 09:06:00,,0817.2,5.00,0.00,22.1,20.2,00.0,31.2,23.8,09.5,0000.0,0001.89,0002.76,0001.66
2022-10-24 09:07:00,,0817.1,5.00,0.00,22.0,20.2,00.0,31.2,23.8,09.6,0000.0,0001.85,0002.61,0001.66
2022-10-24 09:08:00,,0817.1,5.00,0.00,22.0,20.3,00.0,31.2,23.8,09.5,0000.0,0001.87,0002.82,0001.66
2022-10-24 09:09:00,,0817.1,5.00,0.00,22.0,20.3,00.0,31.1,23.8,09.5,0000.0,0001.86,0002.79,0001.66
2022-10-24 09:10:00,,0817.2,5.00,0.00,22.0,20.3,00.0,31.1,23.7,09.5,0000.0,0001.86,0002.78,0001.66
2022-10-24 09:11:00,,0817.1,5.01,0.00,22.0,20.2,00.0,31.1,23.7,09.3,0000.0,0001.86,0002.76,0001.66
2022-10-24 09:12:00,,0817.1,5.00,0.00,22.0,20.2,00.0,31.1,23.7,09.7,0000.0,0001.85,0002.75,0001.67
2022-10-24 09:13:00,,0817.1,4.99,0.00,21.9,20.1,00.0,31.0,23.6,09.8,0000.0,0001.87,0002.76,0001.67
2022-10-24 09:14:00,,0817.1,5.00,0.00,21.9,20.0,00.0,31.0,23.6,09.8,0000.0,0001.86,0002.76,0001.67
2022-10-24 09:15:00,,0817.0,5.00,0.00,21.9,20.0,00.0,31.0,23.6,09.8,0000.0,0001.85,0002.74,0001.67
2022-10-24 09:16:00,,0817.0,5.00,0.00,21.9,20.1,00.0,31.0,23.6,09.8,0000.0,0001.87,0002.75,0001.69
2022-10-24 09:17:00,,0817.0,5.00,0.00,21.9,20.1,00.0,30.9,23.6,09.9,0000.0,0001.86,0002.79,0001.71
2022-10-24 09:18:00,,0817.0,5.00,0.00,21.9,20.1,00.0,30.9,23.6,10.0,0000.0,0001.88,0003.05,0001.73
2022-10-24 09:19:00,,0817.0,5.01,0.00,21.9,20.3,00.0,30.9,23.7,10.0,0000.0,0001.89,0002.89,0001.75
2022-10-24 09:20:00,,0817.2,5.00,0.00,21.9,20.4,00.0,30.9,23.8,09.8,0000.0,0001.91,0002.92,0001.77
2022-10-24 09:21:00,,0817.1,4.98,0.00,21.9,20.4,00.0,30.9,23.8,09.6,0000.0,0001.91,0002.90,0001.77
2022-10-24 09:22:00,,0817.2,5.01,0.00,21.9,20.5,00.0,30.9,23.8,09.5,0000.0,0001.91,0002.94,0001.76
2022-10-24 09:23:00,,0816.8,5.01,0.00,21.9,20.5,00.0,30.9,23.8,09.5,0000.0,0001.95,0003.02,0001.77
2022-10-24 09:24:00,,0816.8,5.01,0.00,22.0,20.5,00.0,30.9,23.8,09.4,0000.0,0001.95,0003.04,0001.78
2022-10-24 09:25:00,,0816.8,4.98,0.00,22.0,20.5,00.0,30.9,23.8,09.2,0000.0,0001.96,0003.04,0001.79
2022-10-24 09:26:00,,0816.8,5.00,0.00,22.0,20.5,00.0,30.9,23.8,08.9,0000.0,0001.96,0003.17,0001.78
2022-10-24 09:27:00,,0816.6,5.00,0.00,22.0,20.5,00.0,30.9,23.8,08.8,0000.0,0001.97,0003.29,0001.76
2022-10-24 09:28:00,,0816.7,5.00,0.00,22.0,20.5,00.0,30.9,23.8,08.8,0000.0,0001.94,0003.21,0001.73
2022-10-24 09:29:00,,0816.7,5.00,0.00,22.0,20.4,00.0,30.9,23.8,09.0,0000.0,0001.90,0002.84,0001.70
2022-10-24 09:30:00,,0816.6,5.00,0.00,22.0,20.4,00.0,30.9,23.8,08.9,0000.0,0001.87,0002.77,0001.68
2022-10-24 09:31:00,,0816.6,4.98,0.00,22.0,20.4,00.0,30.9,23.8,08.9,0000.0,0001.87,0003.70,0001.67
2022-10-24 09:32:00,,0816.6,5.00,0.00,22.0,20.4,00.0,30.9,23.8,08.9,0000.0,0001.87,0005.05,0001.66
2022-10-24 09:33:00,,0816.6,5.00,0.00,22.0,20.4,00.0,30.9,23.8,08.9,0000.0,0001.83,0004.95,0001.66
2022-10-24 09:34:00,,0816.7,5.00,0.00,22.0,20.4,00.0,30.9,23.7,08.8,0000.0,0001.79,0004.85,0001.64
2022-10-24 09:35:00,,0817.1,5.00,0.00,22.0,20.4,00.0,30.9,23.8,08.8,0000.0,0001.76,0005.12,0001.62
2022-10-24 09:36:00,,0816.9,4.99,0.00,22.0,20.4,00.0,30.9,23.8,08.9,0000.0,0001.74,0005.93,0001.60
2022-10-24 09:37:00,,0816.8,5.00,0.00,22.0,20.4,00.0,30.9,23.7,08.9,0000.0,0001.73,0005.82,0001.60
2022-10-24 09:38:00,,0816.9,5.00,0.00,21.9,20.4,00.0,30.9,23.7,08.9,0000.0,0001.70,0005.67,0001.59
2022-10-24 09:39:00,,0816.9,5.01,0.00,22.0,20.4,00.0,30.9,23.7,08.9,0000.0,0001.70,0005.71,0001.59
2022-10-24 09:40:00,,0816.8,5.01,0.00,21.9,20.3,00.0,30.9,23.6,08.9,0000.0,0001.71,0005.76,0001.59
2022-10-24 09:41:00,,0816.8,5.00,0.00,21.9,20.4,00.0,30.9,23.7,08.9,0000.0,0001.70,0005.74,0001.59
2022-10-24 09:42:00,,0816.9,4.99,0.00,22.0,20.4,00.0,30.9,23.7,09.1,0000.0,0001.69,0004.85,0001.57
2022-10-24 09:43:00,,0817.0,5.00,0.00,21.9,20.3,00.0,30.9,23.5,08.7,0000.0,0001.69,0003.92,0001.57
2022-10-24 09:44:00,,0816.8,5.02,0.00,21.9,20.3,00.0,30.9,23.6,08.6,0000.0,0001.71,0006.22,0001.56
2022-10-24 09:45:00,,0817.0,5.00,0.00,21.9,20.3,00.0,30.9,23.5,08.6,0000.0,0001.71,0006.38,0001.56
2022-10-24 09:46:00,,0817.1,5.00,0.00,21.9,20.2,00.0,30.9,23.5,08.6,0000.0,0001.75,0006.13,0001.56
2022-10-24 09:47:00,,0816.8,5.00,0.00,21.9,20.2,00.0,30.9,23.6,08.6,0000.0,0001.79,0005.46,0001.56
2022-10-24 09:48:00,,0816.7,5.00,0.00,21.9,20.2,00.0,30.9,23.4,08.5,0000.0,0001.79,0005.43,0001.57
2022-10-24 09:49:00,,0817.2,5.01,0.00,21.9,20.2,00.0,30.9,23.5,08.5,0000.0,0001.78,0005.40,0001.56
2022-10-24 09:50:00,,0816.9,5.00,0.00,21.9,20.2,00.0,30.9,23.5,08.6,0000.0,0001.78,0005.33,0001.57
2022-10-24 09:51:00,,0816.7,5.00,0.00,21.9,20.2,00.0,30.9,23.4,08.5,0000.0,0001.78,0005.32,0001.57
2022-10-24 09:52:00,,0816.6,4.99,0.00,21.8,20.1,00.0,30.8,23.3,08.6,0000.0,0001.78,0005.51,0001.58
2022-10-24 09:53:00,,0816.8,5.02,0.00,21.8,20.1,00.0,30.8,23.4,08.6,0000.0,0001.78,0005.77,0001.59
2022-10-24 09:54:00,,0817.1,4.99,0.00,21.8,20.1,00.0,30.8,23.4,08.7,0000.0,0001.77,0005.51,0001.59
2022-10-24 09:55:00,,0817.1,4.99,0.00,21.8,20.1,00.0,30.8,23.5,08.7,0000.0,0001.76,0003.43,0001.60
2022-10-24 09:56:00,,0817.0,5.00,0.00,21.8,20.1,00.0,30.8,23.4,08.6,0000.0,0001.78,0003.20,0001.61
2022-10-24 09:57:00,,0816.9,5.00,0.00,21.8,20.0,00.0,30.8,23.4,08.5,0000.0,0001.75,0003.13,0001.62
2022-10-24 09:58:00,,0816.8,5.00,0.00,21.7,20.0,00.0,30.8,23.4,08.5,0000.0,0001.71,0002.99,0001.61
2022-10-24 09:59:00,,0816.9,5.00,0.00,21.7,20.0,00.0,30.8,23.5,08.5,0000.0,0001.72,0003.02,0001.62
